Location: Newark
(48.6330°N, 1.1472°E)
Time: 06:29:35
(UTC+00:00)

Envisat - Visible Passes

Search period start: 28 January 2020 00:00
Search period end: 07 February 2020 00:00
Orbit: 764 x 766 km, 98.1° (Epoch: 27 January)

Date Brightness Start Highest point End Pass type
(mag) Time Alt. Az. Time Alt. Az. Time Alt. Az.
28 Jan 4.8 06:01:27 10° NNE 06:06:06 35° E 06:10:44 10° SSE visible
28 Jan 3.0 17:19:35 10° SSE 17:24:36 67° ENE 17:29:40 10° N visible
28 Jan 5.8 19:00:36 10° SW 19:04:06 19° W 19:07:39 10° NW visible
29 Jan 6.0 05:25:36 10° NE 05:28:57 17° E 05:32:18 10° SE visible
29 Jan 4.6 18:22:18 10° SSW 18:26:59 37° W 18:31:43 10° NNW visible
30 Jan 3.8 06:26:41 10° NNE 06:31:43 58° E 06:36:43 10° S visible
30 Jan 3.2 17:45:00 10° S 17:50:04 76° WSW 17:55:11 10° NNW visible
30 Jan 6.4 19:28:41 10° W 19:29:58 11° W 19:31:15 10° WNW visible
31 Jan 5.2 05:50:20 10° NE 05:54:43 28° E 05:59:05 10° SSE visible
31 Jan 5.5 18:48:43 10° SW 18:52:42 23° W 18:56:42 10° NW visible
01 Feb 6.2 05:14:52 10° NE 05:17:31 14° E 05:20:09 10° ESE visible
01 Feb 3.0 06:52:07 10° NNE 06:57:14 86° WNW 07:02:20 10° SSW visible
01 Feb 4.2 18:10:46 10° S 18:15:38 46° W 18:20:32 10° NNW visible
02 Feb 4.2 06:15:28 10° NNE 06:20:23 47° E 06:25:16 10° S visible
02 Feb 3.0 17:33:41 10° SSE 17:38:46 88° ENE 17:43:53 10° NNW visible
02 Feb 6.2 19:15:57 10° WSW 19:18:30 14° W 19:21:04 10° NW visible
03 Feb 5.6 05:39:17 10° NE 05:43:20 23° E 05:47:20 10° SE visible
03 Feb 5.2 18:36:58 10° SSW 18:41:18 28° W 18:45:39 10° NW visible
04 Feb 6.4 05:04:37 10° ENE 05:06:03 11° E 05:07:30 10° E visible
04 Feb 3.3 06:40:50 10° NNE 06:45:57 77° ESE 06:51:02 10° S visible
04 Feb 3.8 17:59:19 10° S 18:04:17 57° W 18:09:19 10° NNW visible
05 Feb 4.7 06:04:17 10° NNE 06:09:01 38° E 06:13:44 10° SSE visible
05 Feb 6.0 19:03:46 10° SW 19:07:04 17° W 19:10:22 10° NW visible
06 Feb 5.9 05:28:20 10° NE 05:31:55 19° E 05:35:28 10° SE visible
06 Feb 4.8 18:25:19 10° SSW 18:29:55 34° W 18:34:33 10° NNW visible
